Waarnemingen

Advertentie
Mijn weer
Woensdrecht, Nederland (6340): temperatuur & dauwpunt: 16.01.2017 13:00:00 - 22.01.2017 13:00:00 (CET)Woensdrecht, Nederland (6340): temperatuur 5cm: 16.01.2017 13:00:00 - 22.01.2017 13:00:00 (CET)Woensdrecht, Nederland (6340): windsnelheid & windstoten: 16.01.2017 13:00:00 - 22.01.2017 13:00:00 (CET)Woensdrecht, Nederland (6340): windrichting: 16.01.2017 13:00:00 - 22.01.2017 13:00:00 (CET)Woensdrecht, Nederland (6340): luchtdruk: 16.01.2017 13:00:00 - 22.01.2017 13:00:00 (CET)Woensdrecht, Nederland (6340): zicht: 16.01.2017 13:00:00 - 22.01.2017 13:00:00 (CET)
Datum & Tijd tt [°C] td [°C] tt 5cm [°C] ff [km/u] ff [kn] fx [km/u] fx [kn] dd ppp [hPa] vv [km]
22.01.2017 13:00:00 3,0 -3,0 - 4 2 - - - - 8
22.01.2017 12:00:00 0,6 -3,5 1,0 5 3 7 4 WZW 1028,2 7
22.01.2017 11:00:00 -0,5 -2,6 -0,7 2 1 4 2 ZW 1028,0 7
22.01.2017 10:00:00 -5,4 -6,9 -5,6 0 0 4 2 N 1027,5 7
22.01.2017 09:00:00 -8,7 -10,4 -10,1 2 1 4 2 NO 1027,3 4,4
22.01.2017 08:00:00 -9,0 -10,5 -10,4 2 1 4 2 - 1027,3 6
22.01.2017 07:00:00 -8,1 -8,8 -10,1 4 2 7 4 ONO 1027,2 7
22.01.2017 06:00:00 -8,9 -10,8 -10,1 4 2 4 2 ONO 1027,4 7
22.01.2017 05:00:00 -8,2 -9,8 -9,9 2 1 4 2 O 1027,7 7
22.01.2017 04:00:00 -7,6 -8,8 -9,8 0 0 4 2 N 1027,8 9
22.01.2017 03:00:00 -7,2 -8,5 -9,6 4 2 4 2 NO 1027,7 6
22.01.2017 02:00:00 -7,4 -8,7 -9,6 0 0 4 2 N 1027,6 7
22.01.2017 01:00:00 -6,9 -8,0 -9,3 0 0 4 2 N 1027,6 8
22.01.2017 00:00:00 -6,5 -7,2 -9,4 0 0 4 2 N 1027,8 6
21.01.2017 23:00:00 -6,0 -6,9 -8,8 0 0 4 2 N 1027,8 11
21.01.2017 22:00:00 -5,2 -6,2 -8,4 4 2 4 2 ONO 1027,9 8
21.01.2017 21:00:00 -4,7 -5,6 -7,7 4 2 4 2 ONO 1027,9 10
21.01.2017 20:00:00 -3,8 -5,1 -7,2 2 1 4 2 ZO 1027,9 10
21.01.2017 19:00:00 -3,1 -4,3 -6,2 2 1 7 4 O 1027,7 10
21.01.2017 18:00:00 -2,3 -4,4 -5,3 4 2 7 4 ONO 1027,7 10
21.01.2017 17:00:00 2,3 -3,9 -0,5 8 4 11 6 O 1027,6 10
21.01.2017 16:00:00 3,8 -3,5 3,0 11 6 14 8 ONO 1027,6 10
21.01.2017 15:00:00 4,3 -3,5 4,4 11 6 18 10 ONO 1027,6 10
21.01.2017 14:00:00 3,9 -3,4 4,5 11 6 18 10 O 1028,3 10
21.01.2017 13:00:00 3,4 -3,8 4,3 9 5 22 12 O 1029,2 10
21.01.2017 12:00:00 2,0 -3,4 2,8 9 5 14 8 O 1029,9 10
21.01.2017 11:00:00 0,7 -3,4 1,2 8 4 18 10 O 1030,1 10
21.01.2017 10:00:00 -0,7 -4,0 -1,2 13 7 18 10 O 1030,2 10
21.01.2017 09:00:00 -2,9 -4,6 -4,4 11 6 14 8 ONO 1030,0 9
21.01.2017 08:00:00 -4,6 -6,3 -5,8 8 4 11 6 O 1030,3 9
21.01.2017 07:00:00 -1,2 -3,7 -2,7 11 6 22 12 O 1030,3 10
21.01.2017 06:00:00 -0,8 -4,3 -2,0 16 9 25 14 ONO 1030,5 10
21.01.2017 05:00:00 -1,5 -5,8 -2,5 18 10 22 12 ONO 1030,6 10
21.01.2017 04:00:00 -1,7 -6,4 -2,6 16 9 22 12 ONO 1031,0 10
21.01.2017 03:00:00 -1,5 -6,6 -3,0 15 8 22 12 ONO 1031,5 10
21.01.2017 02:00:00 -2,1 -6,5 -3,4 15 8 18 10 ONO 1031,7 10
21.01.2017 01:00:00 -2,3 -6,3 -3,9 15 8 18 10 ONO 1032,2 10
21.01.2017 00:00:00 -3,2 -6,5 -4,5 13 7 14 8 ONO 1032,5 10
20.01.2017 23:00:00 -1,4 -6,0 -2,7 13 7 18 10 ONO 1032,8 10
20.01.2017 22:00:00 -0,2 -5,4 -1,4 15 8 18 10 ONO 1033,0 10
20.01.2017 21:00:00 0,5 -5,3 -1,1 15 8 18 10 ONO 1033,0 10
20.01.2017 20:00:00 -1,3 -5,4 -2,0 11 6 18 10 O 1033,0 10
20.01.2017 19:00:00 -0,6 -4,9 -1,6 15 8 18 10 ONO 1033,1 10
20.01.2017 18:00:00 0,7 -4,4 -0,6 15 8 18 10 ONO 1033,1 10
20.01.2017 17:00:00 2,7 -5,0 1,4 15 8 22 12 ONO 1033,2 10
20.01.2017 16:00:00 5,4 -6,3 4,9 16 9 22 12 ONO 1033,1 10
20.01.2017 15:00:00 5,3 -5,9 5,4 16 9 25 14 ONO 1033,2 10
20.01.2017 14:00:00 4,2 -5,5 4,4 16 9 22 12 ONO 1033,7 10
20.01.2017 13:00:00 2,7 -5,3 2,9 13 7 18 10 ONO 1034,4 10
20.01.2017 12:00:00 1,2 -5,0 1,2 13 7 22 12 O 1034,9 10
20.01.2017 11:00:00 -0,4 -5,1 -0,7 15 8 18 10 ONO 1035,3 10
20.01.2017 10:00:00 -2,3 -5,7 -2,9 13 7 18 10 ONO 1035,3 10
20.01.2017 09:00:00 -6,5 -8,0 -7,7 9 5 11 6 NO 1035,2 10
20.01.2017 08:00:00 -6,7 -8,5 -7,4 8 4 14 8 ONO 1035,2 10
20.01.2017 07:00:00 -5,7 -7,6 -6,6 11 6 14 8 ONO 1035,3 10
20.01.2017 06:00:00 -5,1 -6,9 -6,4 13 7 14 8 ONO 1035,4 9
20.01.2017 05:00:00 -6,3 -7,8 -6,9 11 6 11 6 ONO 1035,6 9
20.01.2017 04:00:00 -6,6 -8,1 -6,9 8 4 11 6 ONO 1035,6 10
20.01.2017 03:00:00 -5,3 -6,6 -6,7 11 6 11 6 NO 1035,7 9
20.01.2017 02:00:00 -5,3 -6,6 -6,9 8 4 11 6 ONO 1035,7 9
20.01.2017 01:00:00 -5,3 -7,2 -6,2 9 5 11 6 NO 1036,1 10
20.01.2017 00:00:00 -5,1 -6,9 -6,4 9 5 11 6 NO 1036,5 10
19.01.2017 23:00:00 -4,2 -6,3 -5,6 11 6 14 8 ONO 1036,7 10
19.01.2017 22:00:00 -4,1 -6,6 -5,8 9 5 14 8 ONO 1036,8 10
19.01.2017 21:00:00 -3,3 -6,1 -4,7 11 6 14 8 ONO 1037,0 10
19.01.2017 20:00:00 -2,4 -5,0 -5,0 11 6 14 8 ONO 1037,2 10
19.01.2017 19:00:00 -2,3 -4,7 -5,9 8 4 11 6 ONO 1036,9 10
19.01.2017 18:00:00 -1,2 -3,5 -5,0 5 3 7 4 ONO 1037,0 10
19.01.2017 17:00:00 0,6 -3,1 -1,5 5 3 14 8 ONO 1036,9 10
19.01.2017 16:00:00 2,6 -3,3 2,1 9 5 18 10 ONO 1036,8 10
19.01.2017 15:00:00 2,9 -5,1 2,7 15 8 22 12 ONO 1036,8 10
19.01.2017 14:00:00 2,3 -4,8 2,6 15 8 22 12 O 1037,1 10
19.01.2017 13:00:00 1,4 -5,5 1,9 13 7 22 12 ONO 1037,3 10
19.01.2017 12:00:00 0,1 -4,7 0,2 11 6 18 10 O 1037,7 10
19.01.2017 11:00:00 -1,4 -4,5 -1,4 11 6 14 8 O 1038,3 10
19.01.2017 10:00:00 -3,3 -5,0 -3,8 9 5 11 6 ONO 1038,2 6
19.01.2017 09:00:00 -6,4 -7,7 -6,7 7 4 14 8 ONO 1038,1 6
19.01.2017 08:00:00 -5,2 -6,2 -6,8 7 4 11 6 ONO 1037,7 5
19.01.2017 07:00:00 -5,5 -6,4 -6,5 9 5 11 6 ONO 1037,5 5
19.01.2017 06:00:00 -5,4 -6,5 -5,8 11 6 14 8 ONO 1037,5 3,6
19.01.2017 05:00:00 -4,9 -5,9 -5,4 9 5 14 8 ONO 1038,0 3,1
19.01.2017 04:00:00 -3,2 -4,2 -3,5 11 6 14 8 NO 1037,9 2,9
19.01.2017 03:00:00 -4,1 -4,9 -4,5 9 5 11 6 ONO 1037,9 2,6
19.01.2017 02:00:00 -5,4 -6,1 -6,0 11 6 14 8 ONO 1038,1 2,2
19.01.2017 01:00:00 -5,0 -5,8 -5,4 11 6 14 8 ONO 1038,0 2,6
19.01.2017 00:00:00 -5,6 -6,2 -6,2 9 5 11 6 NO 1038,5 2,5
18.01.2017 23:00:00 -5,4 -6,2 -6,1 11 6 14 8 ONO 1038,5 2,5
18.01.2017 22:00:00 -3,5 -4,6 -3,9 11 6 14 8 ONO 1038,6 2,7
18.01.2017 21:00:00 -2,6 -3,6 -2,7 9 5 14 8 ONO 1038,5 2,7
18.01.2017 20:00:00 -4,0 -4,9 -4,6 9 5 14 8 ONO 1038,6 3,0
18.01.2017 19:00:00 -2,6 -4,1 -2,9 11 6 14 8 NO 1038,7 3,8
18.01.2017 18:00:00 -3,7 -4,9 -4,5 5 3 11 6 NO 1039,0 4,3
18.01.2017 17:00:00 -2,3 -4,3 -2,7 9 5 18 10 ONO 1039,2 4,8
18.01.2017 16:00:00 -1,5 -3,7 -1,4 11 6 18 10 ONO 1039,4 4,7
18.01.2017 15:00:00 -1,6 -3,7 -1,0 11 6 18 10 ONO 1039,1 4,5
18.01.2017 14:00:00 -2,3 -3,5 -1,7 11 6 14 8 ONO 1039,4 3,1
18.01.2017 13:00:00 -2,8 -3,9 -1,9 11 6 18 10 ONO 1039,7 2,5
18.01.2017 12:00:00 -3,7 -4,5 -3,1 9 5 18 10 ONO 1040,1 2,1
18.01.2017 11:00:00 -3,9 -4,6 -3,4 11 6 14 8 O 1040,6 2,1
18.01.2017 10:00:00 -4,2 -4,9 -3,8 5 3 14 8 O 1040,2 2,3
18.01.2017 09:00:00 -4,3 -5,1 -4,1 11 6 14 8 ONO 1040,0 1,8
18.01.2017 08:00:00 -4,2 -4,8 -4,1 11 6 14 8 O 1039,4 2,1
18.01.2017 07:00:00 -4,3 -5,1 -4,3 9 5 14 8 O 1039,1 2,2
18.01.2017 06:00:00 -4,3 -5,0 -4,2 9 5 14 8 O 1039,3 2,2
18.01.2017 05:00:00 -4,3 -4,8 -4,1 11 6 18 10 O 1039,5 1,9
18.01.2017 04:00:00 -4,5 -5,1 -4,3 9 5 14 8 O 1039,4 1,2
18.01.2017 03:00:00 -4,3 -4,7 -4,2 9 5 14 8 O 1039,6 0,9
18.01.2017 02:00:00 -7,4 -8,5 -7,8 5 3 7 4 ONO 1039,3 2,4
18.01.2017 01:00:00 -6,3 -7,1 -8,0 5 3 7 4 ONO 1039,5 2,2
18.01.2017 00:00:00 -6,6 -7,5 -7,9 5 3 7 4 NO 1039,5 2,2
17.01.2017 23:00:00 -6,0 -6,8 -7,6 4 2 7 4 ONO 1039,4 2,0
17.01.2017 22:00:00 -6,2 -6,9 -7,1 8 4 7 4 ONO 1039,3 2,2
17.01.2017 21:00:00 -6,3 -7,3 -6,9 5 3 7 4 ONO 1039,2 2,8
17.01.2017 20:00:00 -6,2 -7,5 -7,2 5 3 7 4 O 1039,0 2,5
17.01.2017 19:00:00 -4,8 -5,5 -6,5 2 1 4 2 NO 1038,8 2,7
17.01.2017 18:00:00 -3,6 -4,8 -5,2 2 1 7 4 N 1038,6 3,4
17.01.2017 17:00:00 -2,6 -4,9 -3,7 5 3 11 6 ONO 1038,4 5
17.01.2017 16:00:00 -1,0 -4,2 -1,2 8 4 11 6 ONO 1038,1 5
17.01.2017 15:00:00 -1,1 -4,2 -0,5 8 4 11 6 O 1038,2 5
17.01.2017 14:00:00 -1,7 -4,3 -0,7 8 4 14 8 NO 1038,2 4,1
17.01.2017 13:00:00 -2,5 -4,9 -1,8 8 4 14 8 O 1038,4 4,4
17.01.2017 12:00:00 -3,2 -4,8 -2,9 9 5 18 10 O 1038,6 4,2
17.01.2017 11:00:00 -4,1 -5,6 -3,6 9 5 18 10 OZO 1038,4 4,5
17.01.2017 10:00:00 -4,1 -5,1 -3,7 11 6 18 10 ONO 1038,0 3,6
17.01.2017 09:00:00 -4,2 -5,2 -3,9 9 5 14 8 OZO 1037,3 3,8
17.01.2017 08:00:00 -4,3 -5,4 -3,8 9 5 18 10 O 1036,8 3,4
17.01.2017 07:00:00 -3,9 -4,9 -3,5 11 6 - - O 1036,0 2,9
17.01.2017 06:00:00 -3,4 -4,1 -3,2 9 5 18 10 O 1035,7 2,2
17.01.2017 05:00:00 -3,2 -3,9 -2,9 9 5 18 10 ONO 1035,3 2,1
17.01.2017 04:00:00 -2,7 -3,7 -2,5 5 3 - - O 1034,7 2,6
17.01.2017 03:00:00 -2,3 -3,8 -2,2 8 4 18 10 O 1034,5 3,9
17.01.2017 02:00:00 -2,2 -3,7 -2,1 8 4 14 8 O 1034,2 4,3
17.01.2017 01:00:00 -2,4 -3,8 -2,7 5 3 11 6 OZO 1033,9 5
17.01.2017 00:00:00 -3,0 -4,3 -3,1 5 3 18 10 O 1033,7 4,8
16.01.2017 23:00:00 -2,3 -4,2 -2,2 5 3 18 10 O 1033,3 8
16.01.2017 22:00:00 -2,2 -4,4 -2,2 9 5 18 10 O 1032,8 10
16.01.2017 21:00:00 -1,2 -3,4 -1,2 13 7 18 10 ONO 1031,8 9
16.01.2017 20:00:00 -1,0 -2,3 -0,9 11 6 22 12 O 1031,1 8
16.01.2017 19:00:00 -1,0 -1,6 -0,8 11 6 18 10 ONO 1030,5 4,3
16.01.2017 18:00:00 -1,1 -1,2 -0,9 11 6 18 10 ONO 1030,0 2,4
16.01.2017 17:00:00 -0,5 -0,9 -0,2 9 5 18 10 O 1029,4 4,5
16.01.2017 16:00:00 0,8 -0,1 1,1 11 6 14 8 O 1028,8 7
16.01.2017 15:00:00 2,1 0,1 2,0 8 4 14 8 O 1028,2 10
16.01.2017 14:00:00 1,8 0,2 1,8 5 3 11 6 ONO 1027,9 10
16.01.2017 13:00:00 1,8 0,6 2,1 9 5 18 10 O 1027,9 10

tt = temperatuur
td = dauwpunt
tt 5cm = temperatuur 5cm
ff = windsnelheid
fx = windstoten
dd = windrichting
ppp = luchtdruk
vv = zicht

Weerstations in de omgeving